View from above orbital plane
|
View from above satellite
|
Ground track
|
The orbit data is extracted from the following two-line orbital elements,
1 12988U 81117B 21055.77697594 .00000113 00000-0 10341-4 0 9991
2 12988 82.5217 248.2329 0019531 73.3005 297.3076 14.84798484 98886
Epoch (UTC): | 24 February 2021 18:38:50 |
Eccentricity: | 0.0019531 |
inclination: | 82.5217° |
perigee height: | 600 km |
apogee height: | 628 km |
right ascension of ascending node: | 248.2329° |
argument of perigee: | 73.3005° |
revolutions per day: | 14.84798484 |
mean anomaly at epoch: | 297.3076° |
orbit number at epoch: | 9888 |
The dashed part of the orbit path shows where the satellite is in the earth's shadow,
|
|